Regional Weather Roundup
Issued by NWS

Home | Current Version | Previous Version | Graphics & Text | Print | Product List | Glossary On
Versions: 1 2 3 4 5 6 7 8 9 10 11 12 13 14 15 16 17 18 19 20 21 22 23 24 25 26 27 28 29 30 31 32 33 34 35 36 37 38 39 40 41 42 43 44 45 46 47 48 49 50
000
ASUS44 KMEG 180410
RWRTN
TENNESSEE HOURLY STATE WEATHER ROUNDUP
NATIONAL WEATHER SERVICE MEMPHIS TN
1100 PM CDT TUE OCT 17 2017

TNZ002-004-019-021-049-052-054-088>092-180500-
WEST TENNESSEE

CITY           SKY/WX    TMP DP  RH WIND       PRES   REMARKS
MEMPHIS INTL   CLEAR     54  48  80 CALM      30.24R
NWS MEMPHIS      N/A     51 N/A N/A MISG        N/A
JACKSON        CLEAR     48  47  96 CALM      30.25F
SOMERVILLE     CLEAR     48  48 100 CALM      30.23S
COVINGTON      CLEAR     46  46 100 CALM      30.25S
UNION CITY     FOG       45  43  93 CALM      30.24F VSB 1/2
BOLIVAR        CLOUDY    46  45  93 CALM      30.24S
PARIS          CLEAR     46  45  93 CALM      30.24F
HUNTINGDON     CLEAR     46  45  93 CALM      30.25S
LEXINGTON      CLEAR     46  46 100 CALM      30.25F
SELMER         CLEAR     48  46  93 CALM      30.25S
SAVANNAH       CLEAR     46  46 100 CALM      30.25S
$$

TNZ008-025-027-028-033-062-065-066-180500-
NORTH MIDDLE TENNESSEE

CITY           SKY/WX    TMP DP  RH WIND       PRES   REMARKS
NASHVILLE      CLEAR     50  45  83 S3        30.28S
PORTLAND       CLEAR     45  45 100 S3        30.27S FOG
CLARKSVILLE    CLEAR     46  44  93 CALM      30.27S
SMYRNA         CLEAR     45  44  97 CALM      30.29S
COOKEVILLE     CLEAR     41  39  93 CALM      30.28S FOG
GALLATIN       CLEAR     46  43  87 CALM      30.30F
CROSSVILLE     CLEAR     43  40  89 CALM      30.31S
$$

TNZ061-075-076-078-094-096-097-180500-
SOUTH MIDDLE TENNESSEE

CITY           SKY/WX    TMP DP  RH WIND       PRES   REMARKS
FAYETTEVILLE   CLEAR     50  45  81 CALM      30.27S
TULLAHOMA      CLEAR     45  43  93 CALM      30.29S
WINCHESTER     CLEAR     48  46  93 CALM        N/A
COLUMBIA       CLEAR     48  46  93 CALM      30.25F
SHELBYVILLE    CLEAR     46  45  93 CALM      30.28S FOG
$$

TNZ017-018-042-046-047-180500-
NORTHEAST TENNESSEE

CITY           SKY/WX    TMP DP  RH WIND       PRES   REMARKS
TRI CITIES     CLEAR     42  41  96 CALM      30.31F
ELIZABETHTON   CLEAR     46  41  81 CALM      30.33S
$$

TNZ012-013-036-069-073-074-180500-
CENTRAL EAST TENNESSEE

CITY           SKY/WX    TMP DP  RH WIND       PRES   REMARKS
KNOXVILLE      PTCLDY    50  45  83 NE3       30.29S
OAK RIDGE      CLEAR     47  46  97 CALM      30.32R
DOWNTOWN KNOXV CLEAR     46  46 100 CALM      30.31S
GATLINBURG     CLEAR     45  45 100 CALM      30.30S
MORRISTOWN     CLEAR     48  41  76 NE3       30.30S
JACKSBORO      CLEAR     43  43 100 CALM      30.34S
$$

TNZ083-085-099-180500-
SOUTHEAST TENNESSEE

CITY           SKY/WX    TMP DP  RH WIND       PRES   REMARKS
CHATTANOOGA    CLOUDY    51  47  86 CALM      30.31R
DAYTON         CLEAR     45  45 100 CALM      30.30R
$$

SKY/WX REPORTED AS FAIR MEANS FEW OR NO CLOUDS BELOW
12 THOUSAND FEET.





USA.gov is the U.S. government's official web portal to all federal, state and local government web resources and services.